Location: Saint-Usage
(47.1052°N, 5.2587°E)
Time: 12:16:01
(UTC+02:00)

ISS - Pass Details

Date: 23 September 2021
Orbit: 417 x 423 km, 51.6° (Epoch: 24 October)

Event Time Altitude Azimuth Distance (km) Brightness Sun altitude
Rises 20:02:36 0° 253° (WSW) 2,355 1.5 -5.6°
Reaches altitude 10° 20:04:43 10° 257° (WSW) 1,495 0.5 -6.0°
Maximum altitude 20:08:02 64° 339° (NNW) 469 -3.4 -6.5°
Drops below altitude 10° 20:11:24 10° 62° (ENE) 1,503 -1.4 -7.1°
Enters shadow 20:12:11 - 64° (ENE) 1,822 -1.0 -7.2°
